Location: Marcé
(47.5801°N, 0.3280°W)
Time: 14:47:28
(UTC+01:00)

Explorer 7 - Pass Details

Date: 07 December 2021
Orbit: 483 x 674 km, 50.3° (Epoch: 19 January)

Event Time Altitude Azimuth Distance (km) Brightness Sun altitude
Rises 11:24:38 0° 289° (WNW) 2,665 9.9 17.0°
Reaches altitude 10° 11:27:04 10° 278° (W) 1,743 9.2 17.2°
Maximum altitude 11:30:31 30° 217° (SW) 920 8.6 17.4°
Drops below altitude 10° 11:33:51 10° 155° (SSE) 1,674 11.8 17.5°
Sets 11:36:09 0° 144° (SE) 2,540 11.6 17.7°
